Meadville, PA

6:04 AM EST on December 06, 2019 (GMT -0500)
Port Meadville

Weather History for KGKJ - October, 2019

Change the Weather History Date:

Wednesday, October 30, 2019

  Actual Average Record
Temperature  
Mean Temperature 54 °F -  
Max Temperature 60 °F 55 °F 75 °F (1971)
Min Temperature 48 °F 32 °F 18 °F (1965)
Degree Days  
Heating Degree Days 12    
Growing Degree Days 4 (Base 50)    
Moisture  
Dew Point 50 °F    
Average Humidity 84    
Maximum Humidity 93    
Minimum Humidity 69    
Precipitation  
Precipitation 0.22 in - - ()
Sea Level Pressure  
Sea Level Pressure 30.11 in    
Wind  
Wind Speed 3 mph ()    
Max Wind Speed 9 mph    
Max Gust Speed -    
Visibility 10.0 miles    
Events Rain    
Averages and records for this station are not official NWS values.
T = Trace of Precipitation, MM = Missing Value Source: Averaged Metar Reports

Daily Weather History Graph

Daily Weather History Graph

Search for Another Location

Airport or City:

Astronomy

Oct. 30, 2019 Rise Set
Actual Time 7:50 AM EDT 6:18 PM EDT
Civil Twilight 7:21 AM EDT 6:46 PM EDT
Nautical Twilight 6:48 AM EDT 7:19 PM EDT
Astronomical Twilight 6:16 AM EDT 7:51 PM EDT
Moon 10:33 AM EDT (10/30) 8:23 PM EDT (10/30)
Length of Visible Light 11h 25m
Length of Day
10h 28m
Waxing Crescent, 8% of the Moon is Illuminated
Oct 30
Waxing Crescent
Nov 4
First Quarter
Nov 12
Full
Nov 19
Last Quarter
Nov 26
New

Hourly Weather History & Observations

Time (EDT) Temp. Dew Point Humidity Pressure Visibility Wind Dir Wind Speed Gust Speed Precip Events Conditions
12:53 AM 50.0 °F 46.0 °F 86% 30.21 in 10.0 mi Calm Calm - N/A   Clear
1:53 AM 48.0 °F 45.0 °F 89% 30.22 in 10.0 mi Calm Calm - N/A   Partly Cloudy
2:06 AM 48.0 °F 45.0 °F 89% 30.22 in 10.0 mi Calm Calm - N/A   Mostly Cloudy
2:53 AM 51.1 °F 46.9 °F 86% 30.23 in 10.0 mi Calm Calm - N/A   Overcast
3:53 AM 51.1 °F 46.9 °F 86% 30.21 in 10.0 mi Calm Calm - N/A   Overcast
4:30 AM 50.0 °F 46.9 °F 89% 30.21 in 10.0 mi Calm Calm - N/A   Overcast
4:53 AM 51.1 °F 46.9 °F 86% 30.22 in 10.0 mi Calm Calm - N/A   Overcast
5:26 AM 51.1 °F 46.9 °F 86% 30.23 in 10.0 mi Calm Calm - N/A   Overcast
5:53 AM 51.1 °F 46.9 °F 86% 30.23 in 10.0 mi Calm Calm - N/A   Overcast
6:26 AM 50.0 °F 46.9 °F 89% 30.23 in 10.0 mi NNE 4.6 mph - N/A   Overcast
6:34 AM 50.0 °F 46.9 °F 89% 30.23 in 10.0 mi ENE 3.5 mph - N/A   Overcast
6:53 AM 50.0 °F 46.9 °F 89% 30.23 in 10.0 mi NE 4.6 mph - N/A   Overcast
7:35 AM 50.0 °F 46.9 °F 89% 30.23 in 10.0 mi NE 4.6 mph - N/A   Overcast
7:53 AM 51.1 °F 46.9 °F 86% 30.22 in 10.0 mi ENE 4.6 mph - N/A   Overcast
8:53 AM 51.1 °F 46.9 °F 86% 30.24 in 10.0 mi NNE 4.6 mph - N/A   Overcast
9:53 AM 52.0 °F 48.9 °F 89% 30.22 in 10.0 mi NE 5.8 mph - N/A   Mostly Cloudy
10:53 AM 54.0 °F 48.9 °F 83% 30.21 in 10.0 mi NE 8.1 mph - N/A   Overcast
11:53 AM 57.9 °F 48.9 °F 72% 30.19 in 10.0 mi ENE 9.2 mph - N/A   Mostly Cloudy
12:05 PM 57.9 °F 48.0 °F 70% 30.19 in 10.0 mi East 6.9 mph - N/A   Scattered Clouds
12:28 PM 57.9 °F 48.9 °F 72% 30.17 in 10.0 mi East 4.6 mph - N/A   Mostly Cloudy
12:53 PM 57.9 °F 48.0 °F 70% 30.16 in 10.0 mi East 5.8 mph - N/A   Mostly Cloudy
1:01 PM 59.0 °F 48.9 °F 69% 30.14 in 10.0 mi East 9.2 mph - N/A   Scattered Clouds
1:53 PM 59.0 °F 50.0 °F 72% 30.10 in 10.0 mi East 8.1 mph - N/A   Clear
2:50 PM 59.0 °F 51.8 °F 77% 30.08 in 10.0 mi Variable 6.9 mph - N/A   Mostly Cloudy
2:53 PM 59.0 °F 51.1 °F 75% 30.09 in 10.0 mi Variable 5.8 mph - N/A   Mostly Cloudy
3:25 PM 57.9 °F 52.0 °F 81% 30.07 in 10.0 mi Variable 4.6 mph - N/A   Overcast
3:53 PM 57.9 °F 52.0 °F 81% 30.06 in 10.0 mi Variable 5.8 mph - N/A   Overcast
4:44 PM 57.9 °F 52.0 °F 81% 30.05 in 10.0 mi Calm Calm - N/A   Overcast
4:53 PM 57.9 °F 52.0 °F 81% 30.05 in 10.0 mi Calm Calm - N/A   Overcast
5:26 PM 57.9 °F 52.0 °F 81% 30.01 in 10.0 mi East 8.1 mph - N/A   Scattered Clouds
5:53 PM 57.9 °F 52.0 °F 81% 30.01 in 10.0 mi Calm Calm - N/A   Mostly Cloudy
6:53 PM 57.0 °F 53.1 °F 87% 30.00 in 10.0 mi Calm Calm - 0.01 in Rain Light Rain
7:53 PM 57.0 °F 54.0 °F 89% 29.98 in 10.0 mi Variable 3.5 mph - 0.01 in Rain Light Rain
8:53 PM 57.0 °F 54.0 °F 89% 29.95 in 10.0 mi Calm Calm - 0.04 in Rain Light Rain
9:37 PM 55.9 °F 54.0 °F 93% 29.93 in 10.0 mi Variable 4.6 mph - 0.05 in Rain Light Rain
9:53 PM 55.9 °F 54.0 °F 93% 29.93 in 10.0 mi Variable 4.6 mph - 0.07 in Rain Light Rain
10:24 PM 57.0 °F 55.0 °F 93% 29.92 in 10.0 mi Variable 4.6 mph - 0.03 in Rain Light Rain
10:53 PM 57.0 °F 55.0 °F 93% 29.90 in 10.0 mi Variable 3.5 mph - 0.06 in Rain Light Rain
11:30 PM 57.0 °F 55.0 °F 93% 29.88 in 10.0 mi Variable 4.6 mph - 0.03 in Rain Light Rain
11:38 PM 57.0 °F 55.0 °F 93% 29.88 in 10.0 mi Variable 4.6 mph - 0.03 in Rain Light Rain
11:53 PM 57.0 °F 55.0 °F 93% 29.86 in 10.0 mi Variable 5.8 mph - 0.03 in Rain Light Rain